Powrót do katalogu

DELTA 1 DEB

AktywnyPO
NORAD 42566·DEBRIS·🇺🇸 United States

Wystrzelony Jul 23, 1972 z Vandenberg Space Force Base

Loading…

Następne Przeloty (najbliższe 24 godziny)

TLE

ŚwieżeSource: Space-Track

Epoka: Sep 13, 2026, 18:35 UTC

1 42566U 72058JZ  26256.77450691  .00000839  00000-0  49277-3 0  9997
2 42566  98.1484   5.4839 0476921 188.0819 171.2446 13.65208244635624

Śledź DELTA 1 DEB w czasie rzeczywistym z AllMySat

Download on the App Store